STARLINK-5695, 55485

Orbit data source: Space-Track

STARLINK-5695, 55485 is a payload satellite owned by SpaceX/Seattle (US) in LEO that was launched on Thu, 02 Feb 2023 UTC via an FALCON 9 launch vehicle from the Air Force Eastern Test Range (AFETR). Payload-class satellites include a variety of spacecraft equipped with specific instruments for various scientific and technological missions. These include communications satellites like Starlink; space stations such as the ISS; scientific satellites like the Hubble; Earth observation satellites from companies like Planet Labs, Umbra, and HawkEye 360; GPS; miniature CubeSats for education and research; and military/defense satellites.

Loading next visibility...
Identifier
55485, 2023-015AN
Orbit
LEO
Last TLE update
12 hours ago
Origin
Manufacturer
SpaceX/Seattle
Mission
Operational Commercial Communications
Bus & Motor
STARLINK, Unknown motor
Mass
305 kg wet, ~290 kg dry
Launch date (UTC)
2023-02-02 (2 years ago)
Launch vehicle
FALCON 9
Launch site
Air Force Eastern Test Range (AFETR)
Object type
Payload
Rocket body
Debris
Shape & HBR
Box + 1 Pan, 8.86 m
Radar Cross Section
13.562 m², Large (>1 m²)

Expand to show TLE details & history

TLE from 12 hours ago
0 STARLINK-5695
1 55485U 23015AN  25181.94463650  .00000137  00000-0  25211-4 0  9998
2 55485  43.0037 267.0114 0001335 267.5003  92.5687 15.02537117132557
Epoch: 2025-06-30T22:40Z
TLE epoch observation values (Epoch: 2025-06-30T22:40:16.593Z)
Latitude
0.00001°
Longitude
7.6951°
Altitude
558.896 km
Speed
7.584 km/s
True Right ascension
17h 48m 02s
True Declination
0° 00' 00"
Sunlit
Object was in full shadow at epoch
Visualization orbit readout
Latitude
28.43135°
Longitude
149.76593°
Altitude
560.068 km
Speed
7.585 km/s
Apparent Right ascension
06h 09m 42s
Apparent Declination
-6° 25' 26"
Sunlit
Object is in daylight
Visualization observer readout
Local Sidereal Time
22:04:56
Azimuth
73.961° E
Elevation
-27.806°
Doppler factor
1
Orbital elements
Apogee altitude
561.926 km
Perigee altitude
560.073 km
Semi-major axis
6,939.136 km
Eccentricity
0.00013
Inclination
43.0037°
RAAN
267.0114°
Arg. of periapsis
267.5003°
True anomaly
Unknown
Mean anomaly
92.5687°
Eccentric anomaly
Unknown
Mean motion
3.75478 °/min
Orbital period
95.88 mins
BSTAR
0.000025211
Loading maneuver chart data...
Loading SW <> Apogee altitude chart data...
Loading historical data...
Loading historical data...
Loading historical data...
Loading historical data...
Loading historical data...
Loading historical data...
Loading historical data...

STARLINK-5695 Visibility forecast

Observer location: undefined°, undefined°

Span
Click to sort rows by Start time (UTC) header in descending order
Start Az.
Max El. time (UTC)
Max El. Az.
Max El.
End time (UTC)
End Az.
8 mins2025-07-01 11:45:29.886Z279.667° WNW2025-07-01 11:49:29.886Z351.189° N39.344°2025-07-01 11:53:29.886Z76.774° E
7 mins2025-07-01 13:27:29.886Z289.499° WNW2025-07-01 13:30:29.886Z8.505° NNE44.738°2025-07-01 13:34:29.886Z104.976° ESE
6 mins2025-07-01 15:08:29.886Z263.458° W2025-07-01 15:10:29.886Z225.753° WSW25.819°2025-07-01 15:14:29.886Z152.836° SSE
5 mins2025-07-02 08:23:29.886Z192.179° SSW2025-07-02 08:25:29.886Z141.49° SSE28.238°2025-07-02 08:28:29.886Z87.872° E
6 mins2025-07-02 10:03:29.886Z260.874° W2025-07-02 10:05:29.886Z300.035° NW43.789°2025-07-02 10:09:29.886Z70.961° E
|